Back to catalog

FENGYUN 1C DEB

AliveSSO
NORAD 36244·DEBRIS·🇨🇳 China

Launched May 10, 1999 from Taiyuan Satellite Launch Center

Loading…

Next Passes (next 24 hours)

TLE

FreshSource: Space-Track

Epoch: Sep 13, 2026, 06:36 UTC

1 36244U 99025DVV 26256.27528916  .00002251  00000-0  93680-3 0  9994
2 36244  98.9403  17.1345 0049217 211.5977 148.2245 14.26744986958919

Track FENGYUN 1C DEB in real time with AllMySat

Download on the App Store